• In Uzbekistan
  • List of Countries
  • For 7 days
  • Water Temperature
  • Satellite Maps
  • Weather Map
  • Weather Widgets
  • user-avatar
    Login

    Hourly Weather Jaunde

    Today, 20 January, Saturday

    Time Temperature Precipitation Wind Pressure Humidity
    00:00 +22°C° 0 mm 1 mps 697 mmHg 86%
    01:00 +22°C° 0 mm 1 mps 697 mmHg 90%
    02:00 +21°C° 0 mm 1 mps 697 mmHg 92%
    03:00 +21°C° 0 mm 1 mps 697 mmHg 94%
    04:00 +21°C° 0 mm 1 mps 697 mmHg 97%
    05:00 +21°C° 0 mm 1 mps 697 mmHg 95%
    06:00 +21°C° 0 mm 1 mps 697 mmHg 93%
    07:00 +20°C° 0 mm 0 mps 697 mmHg 91%
    08:00 +21°C° 0 mm 0 mps 698 mmHg 84%
    09:00 +24°C° 0 mm 1 mps 698 mmHg 76%
    10:00 +26°C° 0 mm 1 mps 699 mmHg 69%
    11:00 +28°C° 0 mm 1 mps 698 mmHg 58%
    12:00 +31°C° 0 mm 1 mps 698 mmHg 47%
    13:00 +33°C° 0 mm 1 mps 698 mmHg 36%
    14:00 +34°C° 0 mm 1 mps 697 mmHg 34%
    15:00 +34°C° 0 mm 1 mps 696 mmHg 32%
    16:00 +34°C° 0 mm 1 mps 696 mmHg 31%
    17:00 +31°C° 0 mm 1 mps 696 mmHg 37%
    18:00 +29°C° 0 mm 1 mps 695 mmHg 43%
    19:00 +26°C° 0 mm 1 mps 695 mmHg 50%
    20:00 +26°C° 0 mm 1 mps 696 mmHg 57%
    21:00 +25°C° 0 mm 1 mps 697 mmHg 64%
    22:00 +24°C° 0 mm 2 mps 697 mmHg 72%
    23:00 +23°C° 0 mm 2 mps 697 mmHg 78%

    Tomorrow, 21 January, Sunday

    Time Temperature Precipitation Wind Pressure Humidity
    00:00 +23°C° 0 mm 1 mps 697 mmHg 84%
    01:00 +22°C° 0 mm 1 mps 697 mmHg 91%
    02:00 +22°C° 0 mm 1 mps 697 mmHg 91%
    03:00 +22°C° 0 mm 1 mps 697 mmHg 92%
    04:00 +21°C° 0 mm 1 mps 696 mmHg 93%
    05:00 +22°C° 0 mm 1 mps 697 mmHg 91%
    06:00 +20°C° 0 mm 0 mps 697 mmHg 90%
    07:00 +20°C° 0 mm 0 mps 698 mmHg 89%
    08:00 +22°C° 0 mm 0 mps 698 mmHg 79%
    09:00 +26°C° 0 mm 1 mps 699 mmHg 69%
    10:00 +28°C° 0 mm 1 mps 700 mmHg 59%
    11:00 +30°C° 0 mm 1 mps 699 mmHg 49%
    12:00 +33°C° 0 mm 1 mps 699 mmHg 40%
    13:00 +35°C° 0 mm 1 mps 698 mmHg 31%
    14:00 +35°C° 0 mm 1 mps 697 mmHg 30%
    15:00 +35°C° 0 mm 1 mps 696 mmHg 28%
    16:00 +34°C° 0 mm 1 mps 695 mmHg 27%
    17:00 +32°C° 0 mm 1 mps 695 mmHg 33%
    18:00 +30°C° 0 mm 1 mps 695 mmHg 39%
    19:00 +27°C° 0 mm 1 mps 696 mmHg 45%
    20:00 +26°C° 0 mm 1 mps 696 mmHg 53%
    21:00 +25°C° 0 mm 1 mps 697 mmHg 61%
    22:00 +24°C° 0 mm 2 mps 697 mmHg 70%
    23:00 +24°C° 0 mm 2 mps 697 mmHg 76%

    Day after tomorrow, 22 January, Monday

    Time Temperature Precipitation Wind Pressure Humidity
    00:00 +23°C° 0 mm 2 mps 697 mmHg 82%
    01:00 +22°C° 0 mm 1 mps 697 mmHg 89%
    02:00 +22°C° 0 mm 1 mps 696 mmHg 89%
    03:00 +22°C° 0 mm 1 mps 696 mmHg 90%
    04:00 +22°C° 0 mm 1 mps 696 mmHg 91%
    05:00 +22°C° 0 mm 1 mps 697 mmHg 90%
    06:00 +22°C° 0 mm 1 mps 697 mmHg 89%
    07:00 +20°C° 0 mm 0 mps 698 mmHg 89%
    08:00 +25°C° 0 mm 1 mps 698 mmHg 76%
    09:00 +27°C° 0 mm 1 mps 699 mmHg 64%
    10:00 +30°C° 0 mm 1 mps 700 mmHg 52%
    11:00 +32°C° 0 mm 1 mps 699 mmHg 43%
    12:00 +34°C° 0 mm 1 mps 698 mmHg 34%
    13:00 +34°C° 0 mm 0 mps 698 mmHg 26%
    14:00 +36°C° 0 mm 1 mps 697 mmHg 26%
    15:00 +35°C° 0 mm 1 mps 696 mmHg 26%
    16:00 +34°C° 0 mm 1 mps 695 mmHg 26%
    17:00 +32°C° 0 mm 1 mps 695 mmHg 33%
    18:00 +30°C° 0 mm 1 mps 696 mmHg 39%
    19:00 +27°C° 0 mm 1 mps 696 mmHg 46%
    20:00 +26°C° 0 mm 1 mps 696 mmHg 56%
    21:00 +25°C° 0 mm 2 mps 697 mmHg 66%
    22:00 +24°C° 0 mm 2 mps 697 mmHg 76%
    23:00 +23°C° 0 mm 2 mps 697 mmHg 80%

    23 January, Tuesday

    Time Temperature Precipitation Wind Pressure Humidity
    00:00 +23°C° 0 mm 2 mps 697 mmHg 84%
    01:00 +21°C° 0 mm 2 mps 696 mmHg 88%
    02:00 +22°C° 0 mm 1 mps 696 mmHg 88%
    03:00 +23°C° 0 mm 1 mps 696 mmHg 87%
    04:00 +23°C° 0 mm 1 mps 696 mmHg 86%
    05:00 +22°C° 0 mm 1 mps 697 mmHg 88%
    06:00 +20°C° 0 mm 0 mps 697 mmHg 90%
    07:00 +20°C° 0 mm 0 mps 697 mmHg 92%
    08:00 +24°C° 0 mm 1 mps 698 mmHg 79%
    09:00 +27°C° 0 mm 1 mps 699 mmHg 66%
    10:00 +29°C° 0 mm 1 mps 699 mmHg 53%
    11:00 +31°C° 0 mm 1 mps 698 mmHg 45%
    12:00 +33°C° 0 mm 1 mps 698 mmHg 37%
    13:00 +35°C° 0 mm 1 mps 697 mmHg 29%
    14:00 +34°C° 0 mm 1 mps 696 mmHg 29%
    15:00 +34°C° 0 mm 1 mps 695 mmHg 29%
    16:00 +33°C° 0 mm 1 mps 695 mmHg 30%
    17:00 +31°C° 0 mm 1 mps 695 mmHg 36%
    18:00 +29°C° 0 mm 1 mps 695 mmHg 43%
    19:00 +27°C° 0 mm 1 mps 695 mmHg 49%
    20:00 +26°C° 0 mm 1 mps 696 mmHg 58%
    21:00 +25°C° 0 mm 2 mps 696 mmHg 66%
    22:00 +24°C° 0 mm 2 mps 697 mmHg 74%
    23:00 +23°C° 0 mm 2 mps 696 mmHg 79%

    24 January, Wednesday

    Time Temperature Precipitation Wind Pressure Humidity
    00:00 +22°C° 0 mm 1 mps 696 mmHg 84%
    01:00 +22°C° 0 mm 1 mps 696 mmHg 89%
    02:00 +22°C° 0 mm 1 mps 696 mmHg 89%
    03:00 +22°C° 0 mm 1 mps 696 mmHg 89%
    04:00 +20°C° 0 mm 0 mps 696 mmHg 89%
    05:00 +22°C° 0 mm 1 mps 696 mmHg 89%
    06:00 +21°C° 0 mm 1 mps 697 mmHg 89%
    07:00 +21°C° 0 mm 1 mps 697 mmHg 90%
    08:00 +24°C° 0 mm 1 mps 697 mmHg 78%
    09:00 +26°C° 0 mm 1 mps 698 mmHg 66%
    10:00 +28°C° 0 mm 1 mps 698 mmHg 55%
    11:00 +30°C° 0 mm 1 mps 698 mmHg 46%
    12:00 +32°C° 0 mm 1 mps 697 mmHg 38%
    13:00 +34°C° 0 mm 1 mps 697 mmHg 30%
    14:00 +34°C° 0 mm 1 mps 696 mmHg 30%
    15:00 +34°C° 0 mm 1 mps 696 mmHg 29%
    16:00 +33°C° 0 mm 1 mps 695 mmHg 29%
    17:00 +31°C° 0 mm 1 mps 695 mmHg 36%
    18:00 +29°C° 0 mm 1 mps 695 mmHg 43%
    19:00 +27°C° 0 mm 1 mps 695 mmHg 49%
    20:00 +26°C° 0 mm 1 mps 696 mmHg 58%
    21:00 +25°C° 0 mm 1 mps 696 mmHg 67%
    22:00 +24°C° 0 mm 1 mps 696 mmHg 75%
    23:00 +23°C° 0 mm 1 mps 696 mmHg 80%

    25 January, Thursday

    Time Temperature Precipitation Wind Pressure Humidity
    00:00 +22°C° 0 mm 1 mps 696 mmHg 84%
    01:00 +22°C° 0 mm 1 mps 696 mmHg 89%
    02:00 +21°C° 0 mm 1 mps 696 mmHg 91%
    03:00 +21°C° 0 mm 1 mps 696 mmHg 93%
    04:00 +19°C° 0 mm 0 mps 696 mmHg 95%
    05:00 +19°C° 0 mm 0 mps 696 mmHg 94%
    06:00 +19°C° 0 mm 0 mps 697 mmHg 92%
    07:00 +19°C° 0 mm 0 mps 697 mmHg 90%
    08:00 +24°C° 0 mm 1 mps 698 mmHg 78%
    09:00 +26°C° 0 mm 1 mps 698 mmHg 65%
    10:00 +29°C° 0 mm 1 mps 699 mmHg 52%
    11:00 +31°C° 0 mm 1 mps 698 mmHg 44%
    12:00 +32°C° 0 mm 1 mps 697 mmHg 37%
    13:00 +34°C° 0 mm 1 mps 697 mmHg 29%
    14:00 +34°C° 0 mm 1 mps 696 mmHg 30%
    15:00 +33°C° 0 mm 1 mps 696 mmHg 32%
    16:00 +32°C° 0 mm 1 mps 695 mmHg 33%
    17:00 +30°C° 0 mm 1 mps 695 mmHg 39%
    18:00 +28°C° 0 mm 1 mps 695 mmHg 45%
    19:00 +27°C° 0 mm 1 mps 695 mmHg 52%
    20:00 +26°C° 0 mm 1 mps 696 mmHg 59%
    21:00 +25°C° 0 mm 1 mps 696 mmHg 67%
    22:00 +24°C° 0 mm 1 mps 697 mmHg 74%
    23:00 +23°C° 0 mm 1 mps 696 mmHg 80%
    Show more